owner,sensor,date,latitude,longitude,vertical_datum,sea_water_temperature,qcFlag 
TABS,ioos:station:TABS:X:1,2016-03-01T00:00:00Z,27.0660,-96.3383,-2.0,26.46,11111222 
TABS,ioos:station:TABS:X:1,2016-03-01T00:30:00Z,27.0660,-96.3383,-2.0,24.43,11111222 
TABS,ioos:station:TABS:X:1,2016-03-01T01:00:00Z,27.0660,-96.3383,-2.0,23.03,11111222 
TABS,ioos:station:TABS:X:1,2016-03-01T01:30:00Z,27.0660,-96.3383,-2.0,22.04,11111222 
TABS,ioos:station:TABS:X:1,2016-03-01T02:00:00Z,27.0660,-96.3383,-2.0,21.27,11111222 
TABS,ioos:station:TABS:X:1,2016-03-01T02:30:00Z,27.0660,-96.3383,-2.0,20.51,11111222 
TABS,ioos:station:TABS:X:1,2016-03-01T03:00:00Z,27.0660,-96.3383,-2.0,19.98,11111222 
TABS,ioos:station:TABS:X:1,2016-03-01T03:30:00Z,27.0660,-96.3383,-2.0,19.47,11111222 
TABS,ioos:station:TABS:X:1,2016-03-01T04:00:00Z,27.0660,-96.3383,-2.0,18.98,11111222 
TABS,ioos:station:TABS:X:1,2016-03-01T04:30:00Z,27.0660,-96.3383,-2.0,18.46,11111222 
TABS,ioos:station:TABS:X:1,2016-03-01T05:00:00Z,27.0660,-96.3383,-2.0,18.02,11111222 
TABS,ioos:station:TABS:X:1,2016-03-01T05:30:00Z,27.0660,-96.3383,-2.0,17.58,11111222 
TABS,ioos:station:TABS:X:1,2016-03-01T06:00:00Z,27.0660,-96.3383,-2.0,17.16,11111222 
TABS,ioos:station:TABS:X:1,2016-03-01T06:30:00Z,27.0660,-96.3383,-2.0,16.84,11111222 
TABS,ioos:station:TABS:X:1,2016-03-01T07:00:00Z,27.0660,-96.3383,-2.0,16.54,11111222 
TABS,ioos:station:TABS:X:1,2016-03-01T07:30:00Z,27.0660,-96.3383,-2.0,16.43,11111222 
TABS,ioos:station:TABS:X:1,2016-03-01T08:00:00Z,27.0660,-96.3383,-2.0,16.62,11111222 
TABS,ioos:station:TABS:X:1,2016-03-01T08:30:00Z,27.0660,-96.3383,-2.0,16.93,11111222 
TABS,ioos:station:TABS:X:1,2016-03-01T09:00:00Z,27.0660,-96.3383,-2.0,17.25,11111222 
TABS,ioos:station:TABS:X:1,2016-03-01T09:30:00Z,27.0660,-96.3383,-2.0,17.5,11111222 
TABS,ioos:station:TABS:X:1,2016-03-01T10:00:00Z,27.0660,-96.3383,-2.0,17.67,11111222 
TABS,ioos:station:TABS:X:1,2016-03-01T10:30:00Z,27.0660,-96.3383,-2.0,17.85,11111222 
TABS,ioos:station:TABS:X:1,2016-03-01T11:00:00Z,27.0660,-96.3383,-2.0,18.06,11111222 
TABS,ioos:station:TABS:X:1,2016-03-01T11:30:00Z,27.0660,-96.3383,-2.0,18.19,11111222 
TABS,ioos:station:TABS:X:1,2016-03-01T12:00:00Z,27.0660,-96.3383,-2.0,18.23,11111222 
TABS,ioos:station:TABS:X:1,2016-03-01T12:30:00Z,27.0660,-96.3383,-2.0,18.33,11111222 
TABS,ioos:station:TABS:X:1,2016-03-01T13:00:00Z,27.0660,-96.3383,-2.0,18.48,11111222 
TABS,ioos:station:TABS:X:1,2016-03-01T13:30:00Z,27.0660,-96.3383,-2.0,18.86,11111222 
TABS,ioos:station:TABS:X:1,2016-03-01T14:00:00Z,27.0660,-96.3383,-2.0,19.52,11111222 
TABS,ioos:station:TABS:X:1,2016-03-01T14:30:00Z,27.0660,-96.3383,-2.0,20.31,11111222 
TABS,ioos:station:TABS:X:1,2016-03-01T15:00:00Z,27.0660,-96.3383,-2.0,20.83,11111222 
TABS,ioos:station:TABS:X:1,2016-03-01T15:30:00Z,27.0660,-96.3383,-2.0,21.46,11111222 
TABS,ioos:station:TABS:X:1,2016-03-01T16:00:00Z,27.0660,-96.3383,-2.0,22.22,11111222 
TABS,ioos:station:TABS:X:1,2016-03-01T16:30:00Z,27.0660,-96.3383,-2.0,23.93,11111222 
TABS,ioos:station:TABS:X:1,2016-03-01T17:00:00Z,27.0660,-96.3383,-2.0,25.69,11111222 
TABS,ioos:station:TABS:X:1,2016-03-01T17:30:00Z,27.0660,-96.3383,-2.0,26.97,11111222 
TABS,ioos:station:TABS:X:1,2016-03-01T18:00:00Z,27.0660,-96.3383,-2.0,27.21,11111222 
TABS,ioos:station:TABS:X:1,2016-03-01T18:30:00Z,27.0660,-96.3383,-2.0,26.32,11111222 
TABS,ioos:station:TABS:X:1,2016-03-01T19:00:00Z,27.0660,-96.3383,-2.0,28.26,11111222 
TABS,ioos:station:TABS:X:1,2016-03-01T19:30:00Z,27.0660,-96.3383,-2.0,27.5,11111222 
TABS,ioos:station:TABS:X:1,2016-03-01T20:00:00Z,27.0660,-96.3383,-2.0,27.63,11111222 
TABS,ioos:station:TABS:X:1,2016-03-01T20:30:00Z,27.0660,-96.3383,-2.0,31.7,11111222 
TABS,ioos:station:TABS:X:1,2016-03-01T21:00:00Z,27.0660,-96.3383,-2.0,35.9,11133222 
TABS,ioos:station:TABS:X:1,2016-03-01T21:30:00Z,27.0660,-96.3383,-2.0,32.06,11111222 
TABS,ioos:station:TABS:X:1,2016-03-01T22:00:00Z,27.0660,-96.3383,-2.0,31.4,11111222 
TABS,ioos:station:TABS:X:1,2016-03-01T22:30:00Z,27.0660,-96.3383,-2.0,32.93,11111222 
TABS,ioos:station:TABS:X:1,2016-03-01T23:00:00Z,27.0660,-96.3383,-2.0,32.52,11111222 
TABS,ioos:station:TABS:X:1,2016-03-01T23:30:00Z,27.0660,-96.3383,-2.0,26.69,11111222 
TABS,ioos:station:TABS:X:1,2016-03-02T00:00:00Z,27.0660,-96.3383,-2.0,23.76,11111222 
TABS,ioos:station:TABS:X:1,2016-03-02T00:30:00Z,27.0660,-96.3383,-2.0,22.06,11111222 
TABS,ioos:station:TABS:X:1,2016-03-02T01:00:00Z,27.0660,-96.3383,-2.0,20.77,11111222 
TABS,ioos:station:TABS:X:1,2016-03-02T01:30:00Z,27.0660,-96.3383,-2.0,19.67,11111222 
TABS,ioos:station:TABS:X:1,2016-03-02T02:00:00Z,27.0660,-96.3383,-2.0,18.74,11111222 
TABS,ioos:station:TABS:X:1,2016-03-02T02:30:00Z,27.0660,-96.3383,-2.0,17.88,11111222 
TABS,ioos:station:TABS:X:1,2016-03-02T03:00:00Z,27.0660,-96.3383,-2.0,17.16,11111222 
TABS,ioos:station:TABS:X:1,2016-03-02T03:30:00Z,27.0660,-96.3383,-2.0,16.59,11111222 
TABS,ioos:station:TABS:X:1,2016-03-02T04:00:00Z,27.0660,-96.3383,-2.0,16.1,11111222 
TABS,ioos:station:TABS:X:1,2016-03-02T04:30:00Z,27.0660,-96.3383,-2.0,15.53,11111222 
TABS,ioos:station:TABS:X:1,2016-03-02T05:00:00Z,27.0660,-96.3383,-2.0,14.92,11111222 
TABS,ioos:station:TABS:X:1,2016-03-02T05:30:00Z,27.0660,-96.3383,-2.0,14.28,11111222 
TABS,ioos:station:TABS:X:1,2016-03-02T06:00:00Z,27.0660,-96.3383,-2.0,13.71,11111222 
TABS,ioos:station:TABS:X:1,2016-03-02T06:30:00Z,27.0660,-96.3383,-2.0,13.17,11111222 
TABS,ioos:station:TABS:X:1,2016-03-02T07:00:00Z,27.0660,-96.3383,-2.0,12.75,11111222 
TABS,ioos:station:TABS:X:1,2016-03-02T07:30:00Z,27.0660,-96.3383,-2.0,12.24,11111222 
TABS,ioos:station:TABS:X:1,2016-03-02T08:00:00Z,27.0660,-96.3383,-2.0,11.76,11111222 
TABS,ioos:station:TABS:X:1,2016-03-02T08:30:00Z,27.0660,-96.3383,-2.0,11.32,11111222 
TABS,ioos:station:TABS:X:1,2016-03-02T09:00:00Z,27.0660,-96.3383,-2.0,11.02,11111222 
TABS,ioos:station:TABS:X:1,2016-03-02T09:30:00Z,27.0660,-96.3383,-2.0,10.54,11111222 
TABS,ioos:station:TABS:X:1,2016-03-02T10:00:00Z,27.0660,-96.3383,-2.0,10.0,11111222 
TABS,ioos:station:TABS:X:1,2016-03-02T10:30:00Z,27.0660,-96.3383,-2.0,9.42,11133222 
TABS,ioos:station:TABS:X:1,2016-03-02T11:00:00Z,27.0660,-96.3383,-2.0,9.04,11133222 
TABS,ioos:station:TABS:X:1,2016-03-02T11:30:00Z,27.0660,-96.3383,-2.0,8.7,11133222 
TABS,ioos:station:TABS:X:1,2016-03-02T12:00:00Z,27.0660,-96.3383,-2.0,8.53,11133222 
TABS,ioos:station:TABS:X:1,2016-03-02T12:30:00Z,27.0660,-96.3383,-2.0,8.26,11133222 
TABS,ioos:station:TABS:X:1,2016-03-02T13:00:00Z,27.0660,-96.3383,-2.0,7.98,11133222 
TABS,ioos:station:TABS:X:1,2016-03-02T13:30:00Z,27.0660,-96.3383,-2.0,9.4,11133222 
TABS,ioos:station:TABS:X:1,2016-03-02T14:00:00Z,27.0660,-96.3383,-2.0,12.29,11111222 
TABS,ioos:station:TABS:X:1,2016-03-02T14:30:00Z,27.0660,-96.3383,-2.0,14.79,11111222 
TABS,ioos:station:TABS:X:1,2016-03-02T15:00:00Z,27.0660,-96.3383,-2.0,15.92,11111222 
TABS,ioos:station:TABS:X:1,2016-03-02T15:30:00Z,27.0660,-96.3383,-2.0,17.33,11111222 
TABS,ioos:station:TABS:X:1,2016-03-02T16:00:00Z,27.0660,-96.3383,-2.0,20.12,11111222 
TABS,ioos:station:TABS:X:1,2016-03-02T16:30:00Z,27.0660,-96.3383,-2.0,23.08,11111222 
TABS,ioos:station:TABS:X:1,2016-03-02T17:00:00Z,27.0660,-96.3383,-2.0,25.79,11111222 
TABS,ioos:station:TABS:X:1,2016-03-02T17:30:00Z,27.0660,-96.3383,-2.0,27.82,11111222 
TABS,ioos:station:TABS:X:1,2016-03-02T18:00:00Z,27.0660,-96.3383,-2.0,30.31,11111222 
TABS,ioos:station:TABS:X:1,2016-03-02T18:30:00Z,27.0660,-96.3383,-2.0,30.9,11111222 
TABS,ioos:station:TABS:X:1,2016-03-02T19:00:00Z,27.0660,-96.3383,-2.0,32.11,11111222 
TABS,ioos:station:TABS:X:1,2016-03-02T19:30:00Z,27.0660,-96.3383,-2.0,32.61,11111222 
TABS,ioos:station:TABS:X:1,2016-03-02T20:00:00Z,27.0660,-96.3383,-2.0,33.54,11111222 
TABS,ioos:station:TABS:X:1,2016-03-02T20:30:00Z,27.0660,-96.3383,-2.0,33.86,11111222 
TABS,ioos:station:TABS:X:1,2016-03-02T21:00:00Z,27.0660,-96.3383,-2.0,33.67,11111222 
TABS,ioos:station:TABS:X:1,2016-03-02T21:30:00Z,27.0660,-96.3383,-2.0,28.64,11111222 
TABS,ioos:station:TABS:X:1,2016-03-02T22:00:00Z,27.0660,-96.3383,-2.0,28.74,11111222 
TABS,ioos:station:TABS:X:1,2016-03-02T22:30:00Z,27.0660,-96.3383,-2.0,29.96,11111222 
TABS,ioos:station:TABS:X:1,2016-03-02T23:00:00Z,27.0660,-96.3383,-2.0,28.63,11111222 
TABS,ioos:station:TABS:X:1,2016-03-02T23:30:00Z,27.0660,-96.3383,-2.0,24.32,11111222 
TABS,ioos:station:TABS:X:1,2016-03-03T00:00:00Z,27.0660,-96.3383,-2.0,22.16,11111222 
TABS,ioos:station:TABS:X:1,2016-03-03T00:30:00Z,27.0660,-96.3383,-2.0,20.7,11111222 
TABS,ioos:station:TABS:X:1,2016-03-03T01:00:00Z,27.0660,-96.3383,-2.0,19.82,11111222 
TABS,ioos:station:TABS:X:1,2016-03-03T01:30:00Z,27.0660,-96.3383,-2.0,18.83,11111222 
TABS,ioos:station:TABS:X:1,2016-03-03T02:00:00Z,27.0660,-96.3383,-2.0,18.32,11111222 
TABS,ioos:station:TABS:X:1,2016-03-03T02:30:00Z,27.0660,-96.3383,-2.0,18.03,11111222 
TABS,ioos:station:TABS:X:1,2016-03-03T03:00:00Z,27.0660,-96.3383,-2.0,17.83,11111222 
TABS,ioos:station:TABS:X:1,2016-03-03T03:30:00Z,27.0660,-96.3383,-2.0,17.78,11111222 
TABS,ioos:station:TABS:X:1,2016-03-03T04:00:00Z,27.0660,-96.3383,-2.0,17.78,11111222 
TABS,ioos:station:TABS:X:1,2016-03-03T04:30:00Z,27.0660,-96.3383,-2.0,17.82,11111222 
TABS,ioos:station:TABS:X:1,2016-03-03T05:00:00Z,27.0660,-96.3383,-2.0,17.95,11111222 
TABS,ioos:station:TABS:X:1,2016-03-03T05:30:00Z,27.0660,-96.3383,-2.0,18.05,11111222 
TABS,ioos:station:TABS:X:1,2016-03-03T06:00:00Z,27.0660,-96.3383,-2.0,18.15,11111222 
TABS,ioos:station:TABS:X:1,2016-03-03T06:30:00Z,27.0660,-96.3383,-2.0,18.29,11111222 
TABS,ioos:station:TABS:X:1,2016-03-03T07:00:00Z,27.0660,-96.3383,-2.0,18.36,11111222 
TABS,ioos:station:TABS:X:1,2016-03-03T07:30:00Z,27.0660,-96.3383,-2.0,17.75,11111222 
TABS,ioos:station:TABS:X:1,2016-03-03T08:00:00Z,27.0660,-96.3383,-2.0,17.44,11111222 
TABS,ioos:station:TABS:X:1,2016-03-03T08:30:00Z,27.0660,-96.3383,-2.0,17.81,11111222 
TABS,ioos:station:TABS:X:1,2016-03-03T09:00:00Z,27.0660,-96.3383,-2.0,18.34,11111222 
TABS,ioos:station:TABS:X:1,2016-03-03T09:30:00Z,27.0660,-96.3383,-2.0,18.67,11111222 
TABS,ioos:station:TABS:X:1,2016-03-03T10:00:00Z,27.0660,-96.3383,-2.0,18.95,11111222 
TABS,ioos:station:TABS:X:1,2016-03-03T10:30:00Z,27.0660,-96.3383,-2.0,19.28,11111222 
TABS,ioos:station:TABS:X:1,2016-03-03T11:00:00Z,27.0660,-96.3383,-2.0,19.54,11111222 
TABS,ioos:station:TABS:X:1,2016-03-03T11:30:00Z,27.0660,-96.3383,-2.0,19.73,11111222 
TABS,ioos:station:TABS:X:1,2016-03-03T12:00:00Z,27.0660,-96.3383,-2.0,19.88,11111222 
TABS,ioos:station:TABS:X:1,2016-03-03T12:30:00Z,27.0660,-96.3383,-2.0,19.98,11111222 
TABS,ioos:station:TABS:X:1,2016-03-03T13:00:00Z,27.0660,-96.3383,-2.0,20.09,11111222 
TABS,ioos:station:TABS:X:1,2016-03-03T13:30:00Z,27.0660,-96.3383,-2.0,20.27,11111222 
TABS,ioos:station:TABS:X:1,2016-03-03T14:00:00Z,27.0660,-96.3383,-2.0,20.48,11111222 
TABS,ioos:station:TABS:X:1,2016-03-03T14:30:00Z,27.0660,-96.3383,-2.0,20.99,11111222 
TABS,ioos:station:TABS:X:1,2016-03-03T15:00:00Z,27.0660,-96.3383,-2.0,22.45,11111222 
TABS,ioos:station:TABS:X:1,2016-03-03T15:30:00Z,27.0660,-96.3383,-2.0,24.28,11111222 
TABS,ioos:station:TABS:X:1,2016-03-03T16:00:00Z,27.0660,-96.3383,-2.0,26.53,11111222 
TABS,ioos:station:TABS:X:1,2016-03-03T16:30:00Z,27.0660,-96.3383,-2.0,28.55,11111222 
TABS,ioos:station:TABS:X:1,2016-03-03T17:00:00Z,27.0660,-96.3383,-2.0,30.45,11111222 
TABS,ioos:station:TABS:X:1,2016-03-03T17:30:00Z,27.0660,-96.3383,-2.0,32.93,11111222 
TABS,ioos:station:TABS:X:1,2016-03-03T18:00:00Z,27.0660,-96.3383,-2.0,35.39,11133222 
TABS,ioos:station:TABS:X:1,2016-03-03T18:30:00Z,27.0660,-96.3383,-2.0,37.49,11133222 
TABS,ioos:station:TABS:X:1,2016-03-03T19:00:00Z,27.0660,-96.3383,-2.0,38.66,11133222 
TABS,ioos:station:TABS:X:1,2016-03-03T19:30:00Z,27.0660,-96.3383,-2.0,40.08,11144222 
TABS,ioos:station:TABS:X:1,2016-03-03T20:00:00Z,27.0660,-96.3383,-2.0,40.44,11144222 
TABS,ioos:station:TABS:X:1,2016-03-03T20:30:00Z,27.0660,-96.3383,-2.0,39.99,11133222 
TABS,ioos:station:TABS:X:1,2016-03-03T21:00:00Z,27.0660,-96.3383,-2.0,39.98,11133222 
TABS,ioos:station:TABS:X:1,2016-03-03T21:30:00Z,27.0660,-96.3383,-2.0,33.88,11111222 
TABS,ioos:station:TABS:X:1,2016-03-03T22:00:00Z,27.0660,-96.3383,-2.0,34.14,11111222 
TABS,ioos:station:TABS:X:1,2016-03-03T22:30:00Z,27.0660,-96.3383,-2.0,36.49,11133222 
TABS,ioos:station:TABS:X:1,2016-03-03T23:00:00Z,27.0660,-96.3383,-2.0,35.7,11133222 
TABS,ioos:station:TABS:X:1,2016-03-03T23:30:00Z,27.0660,-96.3383,-2.0,28.56,11111222 
TABS,ioos:station:TABS:X:1,2016-03-04T00:00:00Z,27.0660,-96.3383,-2.0,25.22,11111222 
TABS,ioos:station:TABS:X:1,2016-03-04T00:30:00Z,27.0660,-96.3383,-2.0,23.4,11111222 
TABS,ioos:station:TABS:X:1,2016-03-04T01:00:00Z,27.0660,-96.3383,-2.0,22.0,11111222 
TABS,ioos:station:TABS:X:1,2016-03-04T01:30:00Z,27.0660,-96.3383,-2.0,20.79,11111222 
TABS,ioos:station:TABS:X:1,2016-03-04T02:00:00Z,27.0660,-96.3383,-2.0,19.67,11111222 
TABS,ioos:station:TABS:X:1,2016-03-04T02:30:00Z,27.0660,-96.3383,-2.0,18.71,11111222 
TABS,ioos:station:TABS:X:1,2016-03-04T03:00:00Z,27.0660,-96.3383,-2.0,18.1,11111222 
TABS,ioos:station:TABS:X:1,2016-03-04T03:30:00Z,27.0660,-96.3383,-2.0,17.46,11111222 
TABS,ioos:station:TABS:X:1,2016-03-04T04:00:00Z,27.0660,-96.3383,-2.0,16.79,11111222 
TABS,ioos:station:TABS:X:1,2016-03-04T04:30:00Z,27.0660,-96.3383,-2.0,16.12,11111222 
TABS,ioos:station:TABS:X:1,2016-03-04T05:00:00Z,27.0660,-96.3383,-2.0,15.66,11111222 
TABS,ioos:station:TABS:X:1,2016-03-04T05:30:00Z,27.0660,-96.3383,-2.0,15.17,11111222 
TABS,ioos:station:TABS:X:1,2016-03-04T06:00:00Z,27.0660,-96.3383,-2.0,14.77,11111222 
TABS,ioos:station:TABS:X:1,2016-03-04T06:30:00Z,27.0660,-96.3383,-2.0,14.24,11111222 
TABS,ioos:station:TABS:X:1,2016-03-04T07:00:00Z,27.0660,-96.3383,-2.0,13.39,11111222 
TABS,ioos:station:TABS:X:1,2016-03-04T07:30:00Z,27.0660,-96.3383,-2.0,12.54,11111222 
TABS,ioos:station:TABS:X:1,2016-03-04T08:00:00Z,27.0660,-96.3383,-2.0,11.81,11111222 
TABS,ioos:station:TABS:X:1,2016-03-04T08:30:00Z,27.0660,-96.3383,-2.0,11.25,11111222 
TABS,ioos:station:TABS:X:1,2016-03-04T09:00:00Z,27.0660,-96.3383,-2.0,10.64,11111222 
TABS,ioos:station:TABS:X:1,2016-03-04T09:30:00Z,27.0660,-96.3383,-2.0,10.06,11111222 
TABS,ioos:station:TABS:X:1,2016-03-04T10:00:00Z,27.0660,-96.3383,-2.0,9.57,11133222 
TABS,ioos:station:TABS:X:1,2016-03-04T10:30:00Z,27.0660,-96.3383,-2.0,9.14,11133222 
TABS,ioos:station:TABS:X:1,2016-03-04T11:00:00Z,27.0660,-96.3383,-2.0,8.62,11133222 
TABS,ioos:station:TABS:X:1,2016-03-04T11:30:00Z,27.0660,-96.3383,-2.0,8.07,11133222 
TABS,ioos:station:TABS:X:1,2016-03-04T12:00:00Z,27.0660,-96.3383,-2.0,7.89,11133222 
TABS,ioos:station:TABS:X:1,2016-03-04T12:30:00Z,27.0660,-96.3383,-2.0,7.92,11133222 
TABS,ioos:station:TABS:X:1,2016-03-04T13:00:00Z,27.0660,-96.3383,-2.0,8.2,11133222 
TABS,ioos:station:TABS:X:1,2016-03-04T13:30:00Z,27.0660,-96.3383,-2.0,10.04,11111222 
TABS,ioos:station:TABS:X:1,2016-03-04T14:00:00Z,27.0660,-96.3383,-2.0,13.84,11111222 
TABS,ioos:station:TABS:X:1,2016-03-04T14:30:00Z,27.0660,-96.3383,-2.0,17.38,11111222 
TABS,ioos:station:TABS:X:1,2016-03-04T15:00:00Z,27.0660,-96.3383,-2.0,19.06,11111222 
TABS,ioos:station:TABS:X:1,2016-03-04T15:30:00Z,27.0660,-96.3383,-2.0,20.29,11111222 
TABS,ioos:station:TABS:X:1,2016-03-04T16:00:00Z,27.0660,-96.3383,-2.0,23.56,11111222 
TABS,ioos:station:TABS:X:1,2016-03-04T16:30:00Z,27.0660,-96.3383,-2.0,26.72,11111222 
TABS,ioos:station:TABS:X:1,2016-03-04T17:00:00Z,27.0660,-96.3383,-2.0,29.39,11111222 
TABS,ioos:station:TABS:X:1,2016-03-04T17:30:00Z,27.0660,-96.3383,-2.0,32.5,11111222 
TABS,ioos:station:TABS:X:1,2016-03-04T18:00:00Z,27.0660,-96.3383,-2.0,35.19,11133222 
TABS,ioos:station:TABS:X:1,2016-03-04T18:30:00Z,27.0660,-96.3383,-2.0,37.73,11133222 
TABS,ioos:station:TABS:X:1,2016-03-04T19:00:00Z,27.0660,-96.3383,-2.0,40.06,11144222 
TABS,ioos:station:TABS:X:1,2016-03-04T19:30:00Z,27.0660,-96.3383,-2.0,41.02,11144222 
TABS,ioos:station:TABS:X:1,2016-03-04T20:00:00Z,27.0660,-96.3383,-2.0,42.8,11144222 
TABS,ioos:station:TABS:X:1,2016-03-04T20:30:00Z,27.0660,-96.3383,-2.0,42.09,11144222 
TABS,ioos:station:TABS:X:1,2016-03-04T21:00:00Z,27.0660,-96.3383,-2.0,40.82,11144222 
TABS,ioos:station:TABS:X:1,2016-03-04T21:30:00Z,27.0660,-96.3383,-2.0,34.2,11111222 
TABS,ioos:station:TABS:X:1,2016-03-04T22:00:00Z,27.0660,-96.3383,-2.0,34.51,11111222 
TABS,ioos:station:TABS:X:1,2016-03-04T22:30:00Z,27.0660,-96.3383,-2.0,37.96,11133222 
TABS,ioos:station:TABS:X:1,2016-03-04T23:00:00Z,27.0660,-96.3383,-2.0,37.79,11133222 
TABS,ioos:station:TABS:X:1,2016-03-04T23:30:00Z,27.0660,-96.3383,-2.0,29.67,11111222 
TABS,ioos:station:TABS:X:1,2016-03-05T00:00:00Z,27.0660,-96.3383,-2.0,25.23,11111222 
TABS,ioos:station:TABS:X:1,2016-03-05T00:30:00Z,27.0660,-96.3383,-2.0,22.72,11111222 
TABS,ioos:station:TABS:X:1,2016-03-05T01:00:00Z,27.0660,-96.3383,-2.0,20.89,11111222 
TABS,ioos:station:TABS:X:1,2016-03-05T01:30:00Z,27.0660,-96.3383,-2.0,19.51,11111222 
TABS,ioos:station:TABS:X:1,2016-03-05T02:00:00Z,27.0660,-96.3383,-2.0,18.48,11111222 
TABS,ioos:station:TABS:X:1,2016-03-05T02:30:00Z,27.0660,-96.3383,-2.0,17.72,11111222 
TABS,ioos:station:TABS:X:1,2016-03-05T03:00:00Z,27.0660,-96.3383,-2.0,17.04,11111222 
TABS,ioos:station:TABS:X:1,2016-03-05T03:30:00Z,27.0660,-96.3383,-2.0,16.82,11111222 
TABS,ioos:station:TABS:X:1,2016-03-05T04:00:00Z,27.0660,-96.3383,-2.0,16.26,11111222 
TABS,ioos:station:TABS:X:1,2016-03-05T04:30:00Z,27.0660,-96.3383,-2.0,15.55,11111222 
TABS,ioos:station:TABS:X:1,2016-03-05T05:00:00Z,27.0660,-96.3383,-2.0,14.89,11111222 
TABS,ioos:station:TABS:X:1,2016-03-05T05:30:00Z,27.0660,-96.3383,-2.0,14.36,11111222 
TABS,ioos:station:TABS:X:1,2016-03-05T06:00:00Z,27.0660,-96.3383,-2.0,13.71,11111222 
TABS,ioos:station:TABS:X:1,2016-03-05T06:30:00Z,27.0660,-96.3383,-2.0,13.11,11111222 
TABS,ioos:station:TABS:X:1,2016-03-05T07:00:00Z,27.0660,-96.3383,-2.0,12.64,11111222 
TABS,ioos:station:TABS:X:1,2016-03-05T07:30:00Z,27.0660,-96.3383,-2.0,12.3,11111222 
TABS,ioos:station:TABS:X:1,2016-03-05T08:00:00Z,27.0660,-96.3383,-2.0,11.74,11111222 
TABS,ioos:station:TABS:X:1,2016-03-05T08:30:00Z,27.0660,-96.3383,-2.0,11.33,11111222 
TABS,ioos:station:TABS:X:1,2016-03-05T09:00:00Z,27.0660,-96.3383,-2.0,11.12,11111222 
TABS,ioos:station:TABS:X:1,2016-03-05T09:30:00Z,27.0660,-96.3383,-2.0,10.57,11111222 
TABS,ioos:station:TABS:X:1,2016-03-05T10:00:00Z,27.0660,-96.3383,-2.0,10.37,11111222 
TABS,ioos:station:TABS:X:1,2016-03-05T10:30:00Z,27.0660,-96.3383,-2.0,10.15,11111222 
TABS,ioos:station:TABS:X:1,2016-03-05T11:00:00Z,27.0660,-96.3383,-2.0,9.8,11133222 
TABS,ioos:station:TABS:X:1,2016-03-05T11:30:00Z,27.0660,-96.3383,-2.0,9.93,11133222 
TABS,ioos:station:TABS:X:1,2016-03-05T12:00:00Z,27.0660,-96.3383,-2.0,10.11,11111222 
TABS,ioos:station:TABS:X:1,2016-03-05T12:30:00Z,27.0660,-96.3383,-2.0,10.38,11111222 
TABS,ioos:station:TABS:X:1,2016-03-05T13:00:00Z,27.0660,-96.3383,-2.0,11.09,11111222 
TABS,ioos:station:TABS:X:1,2016-03-05T13:30:00Z,27.0660,-96.3383,-2.0,11.97,11111222 
TABS,ioos:station:TABS:X:1,2016-03-05T14:00:00Z,27.0660,-96.3383,-2.0,13.15,11111222 
TABS,ioos:station:TABS:X:1,2016-03-05T14:30:00Z,27.0660,-96.3383,-2.0,14.47,11111222 
TABS,ioos:station:TABS:X:1,2016-03-05T15:00:00Z,27.0660,-96.3383,-2.0,16.14,11111222 
TABS,ioos:station:TABS:X:1,2016-03-05T15:30:00Z,27.0660,-96.3383,-2.0,17.02,11111222 
TABS,ioos:station:TABS:X:1,2016-03-05T16:00:00Z,27.0660,-96.3383,-2.0,18.4,11111222 
TABS,ioos:station:TABS:X:1,2016-03-05T16:30:00Z,27.0660,-96.3383,-2.0,21.77,11111222 
TABS,ioos:station:TABS:X:1,2016-03-05T17:00:00Z,27.0660,-96.3383,-2.0,25.55,11111222 
TABS,ioos:station:TABS:X:1,2016-03-05T17:30:00Z,27.0660,-96.3383,-2.0,30.7,11111222 
TABS,ioos:station:TABS:X:1,2016-03-05T18:00:00Z,27.0660,-96.3383,-2.0,33.64,11111222 
TABS,ioos:station:TABS:X:1,2016-03-05T18:30:00Z,27.0660,-96.3383,-2.0,35.17,11133222 
TABS,ioos:station:TABS:X:1,2016-03-05T19:00:00Z,27.0660,-96.3383,-2.0,36.85,11133222 
TABS,ioos:station:TABS:X:1,2016-03-05T19:30:00Z,27.0660,-96.3383,-2.0,39.01,11133222 
TABS,ioos:station:TABS:X:1,2016-03-05T20:00:00Z,27.0660,-96.3383,-2.0,39.02,11133222 
TABS,ioos:station:TABS:X:1,2016-03-05T20:30:00Z,27.0660,-96.3383,-2.0,38.7,11133222 
TABS,ioos:station:TABS:X:1,2016-03-05T21:00:00Z,27.0660,-96.3383,-2.0,39.62,11133222 
TABS,ioos:station:TABS:X:1,2016-03-05T21:30:00Z,27.0660,-96.3383,-2.0,33.94,11111222 
TABS,ioos:station:TABS:X:1,2016-03-05T22:00:00Z,27.0660,-96.3383,-2.0,33.8,11111222 
TABS,ioos:station:TABS:X:1,2016-03-05T22:30:00Z,27.0660,-96.3383,-2.0,35.29,11133222 
TABS,ioos:station:TABS:X:1,2016-03-05T23:00:00Z,27.0660,-96.3383,-2.0,33.68,11111222 
TABS,ioos:station:TABS:X:1,2016-03-05T23:30:00Z,27.0660,-96.3383,-2.0,28.42,11111222 
TABS,ioos:station:TABS:X:1,2016-03-06T00:00:00Z,27.0660,-96.3383,-2.0,25.33,11111222 
TABS,ioos:station:TABS:X:1,2016-03-06T00:30:00Z,27.0660,-96.3383,-2.0,23.51,11111222 
TABS,ioos:station:TABS:X:1,2016-03-06T01:00:00Z,27.0660,-96.3383,-2.0,22.06,11111222 
TABS,ioos:station:TABS:X:1,2016-03-06T01:30:00Z,27.0660,-96.3383,-2.0,20.85,11111222 
TABS,ioos:station:TABS:X:1,2016-03-06T02:00:00Z,27.0660,-96.3383,-2.0,19.76,11111222 
TABS,ioos:station:TABS:X:1,2016-03-06T02:30:00Z,27.0660,-96.3383,-2.0,18.93,11111222 
TABS,ioos:station:TABS:X:1,2016-03-06T03:00:00Z,27.0660,-96.3383,-2.0,18.43,11111222 
TABS,ioos:station:TABS:X:1,2016-03-06T03:30:00Z,27.0660,-96.3383,-2.0,18.03,11111222 
TABS,ioos:station:TABS:X:1,2016-03-06T04:00:00Z,27.0660,-96.3383,-2.0,17.36,11111222 
TABS,ioos:station:TABS:X:1,2016-03-06T04:30:00Z,27.0660,-96.3383,-2.0,16.76,11111222 
TABS,ioos:station:TABS:X:1,2016-03-06T05:00:00Z,27.0660,-96.3383,-2.0,16.21,11111222 
TABS,ioos:station:TABS:X:1,2016-03-06T05:30:00Z,27.0660,-96.3383,-2.0,15.61,11111222 
TABS,ioos:station:TABS:X:1,2016-03-06T06:00:00Z,27.0660,-96.3383,-2.0,15.01,11111222 
TABS,ioos:station:TABS:X:1,2016-03-06T06:30:00Z,27.0660,-96.3383,-2.0,14.43,11111222 
TABS,ioos:station:TABS:X:1,2016-03-06T07:00:00Z,27.0660,-96.3383,-2.0,13.85,11111222 
TABS,ioos:station:TABS:X:1,2016-03-06T07:30:00Z,27.0660,-96.3383,-2.0,13.36,11111222 
TABS,ioos:station:TABS:X:1,2016-03-06T08:00:00Z,27.0660,-96.3383,-2.0,12.9,11111222 
TABS,ioos:station:TABS:X:1,2016-03-06T08:30:00Z,27.0660,-96.3383,-2.0,12.58,11111222 
TABS,ioos:station:TABS:X:1,2016-03-06T09:00:00Z,27.0660,-96.3383,-2.0,12.35,11111222 
TABS,ioos:station:TABS:X:1,2016-03-06T09:30:00Z,27.0660,-96.3383,-2.0,12.07,11111222 
TABS,ioos:station:TABS:X:1,2016-03-06T10:00:00Z,27.0660,-96.3383,-2.0,12.41,11111222 
TABS,ioos:station:TABS:X:1,2016-03-06T10:30:00Z,27.0660,-96.3383,-2.0,12.8,11111222 
TABS,ioos:station:TABS:X:1,2016-03-06T11:00:00Z,27.0660,-96.3383,-2.0,13.09,11111222 
TABS,ioos:station:TABS:X:1,2016-03-06T11:30:00Z,27.0660,-96.3383,-2.0,13.29,11111222 
TABS,ioos:station:TABS:X:1,2016-03-06T12:00:00Z,27.0660,-96.3383,-2.0,13.5,11111222 
TABS,ioos:station:TABS:X:1,2016-03-06T12:30:00Z,27.0660,-96.3383,-2.0,13.68,11111222 
TABS,ioos:station:TABS:X:1,2016-03-06T13:00:00Z,27.0660,-96.3383,-2.0,13.89,11111222 
TABS,ioos:station:TABS:X:1,2016-03-06T13:30:00Z,27.0660,-96.3383,-2.0,14.25,11111222 
TABS,ioos:station:TABS:X:1,2016-03-06T14:00:00Z,27.0660,-96.3383,-2.0,14.7,11111222 
TABS,ioos:station:TABS:X:1,2016-03-06T14:30:00Z,27.0660,-96.3383,-2.0,15.59,11111222 
TABS,ioos:station:TABS:X:1,2016-03-06T15:00:00Z,27.0660,-96.3383,-2.0,15.79,11111222 
TABS,ioos:station:TABS:X:1,2016-03-06T15:30:00Z,27.0660,-96.3383,-2.0,17.98,11111222 
TABS,ioos:station:TABS:X:1,2016-03-06T16:00:00Z,27.0660,-96.3383,-2.0,21.58,11111222 
TABS,ioos:station:TABS:X:1,2016-03-06T16:30:00Z,27.0660,-96.3383,-2.0,22.42,11111222 
TABS,ioos:station:TABS:X:1,2016-03-06T17:00:00Z,27.0660,-96.3383,-2.0,25.35,11111222 
TABS,ioos:station:TABS:X:1,2016-03-06T17:30:00Z,27.0660,-96.3383,-2.0,28.77,11111222 
TABS,ioos:station:TABS:X:1,2016-03-06T18:00:00Z,27.0660,-96.3383,-2.0,30.98,11111222 
TABS,ioos:station:TABS:X:1,2016-03-06T18:30:00Z,27.0660,-96.3383,-2.0,33.16,11111222 